Regional Weather Roundup
Issued by NWS

Home | Current Version | Previous Version | Text Only | Print | Product List | Glossary Off
Versions: 1 2 3 4 5 6 7 8 9 10 11 12 13 14 15 16 17 18 19 20 21 22 23 24 25 26 27 28 29 30 31 32 33 34 35 36 37 38 39 40 41 42 43 44 45 46 47 48 49 50

000
ASUS43 KFSD 251302
RWRSD

WEATHER ROUNDUP FOR SOUTH DAKOTA
NATIONAL WEATHER SERVICE SIOUX FALLS SD
800 AM CDT THU MAY 25 2017

NOTE: "FAIR" INDICATES FEW OR NO CLOUDS BELOW 12,000 FEET WITH NO
SIGNIFICANT WEATHER AND/OR OBSTRUCTIONS TO VISIBILITY.


SDZ001>005-009-010-012>017-251400-
NORTHWEST AND NORTH CENTRAL SOUTH DAKOTA

CITY           SKY/WX    TMP DP  RH WIND       PRES   REMARKS
BUFFALO          N/A     48  40  73 NW13      29.42R
FAITH            N/A     49  47  93 NW15      29.42R
MOBRIDGE       SUNNY     55  45  68 SE10      29.37R
$$

SDZ012>016-024>037-041>051-057-063-072>074-251400-
SOUTHWEST AND SOUTH CENTRAL SOUTH DAKOTA

CITY           SKY/WX    TMP DP  RH WIND       PRES   REMARKS
RAPID CTY ARPT PTSUNNY   54  40  59 NW13      29.50R
PIERRE         SUNNY     57  47  69 SW8       29.35R
CUSTER         CLOUDY    47  33  58 N3        29.55R
ELLSWORTH AFB  CLOUDY    55  40  58 NW14      29.50R
PHILIP         CLOUDY    55  47  74 W20G26    29.42R
PINE RIDGE     CLOUDY    55  52  89 CALM      29.50S
SPEARFISH      FAIR      52  39  62 W6        29.54R
WINNER         FAIR      58  47  66 SW18G25   29.42S
$$

SDZ004>011-016>023-039-040-251400-
NORTHEAST SOUTH DAKOTA

CITY           SKY/WX    TMP DP  RH WIND       PRES   REMARKS
ABERDEEN       SUNNY     56  44  64 SE30G38   29.43F
WATERTOWN      CLOUDY    51  46  83 SE17G26   29.53F
BROOKINGS      PTSUNNY   52  46  80 SE20G25   29.58F
SISSETON         N/A     51  48  89 S17       29.54F
$$

SDZ017-020-022-023-036>040-048>070-251400-
SOUTHEAST SOUTH DAKOTA

CITY           SKY/WX    TMP DP  RH WIND       PRES   REMARKS
SIOUX FALLS    PTSUNNY   54  48  80 SE15G24   29.60F
HURON          SUNNY     56  45  66 SE18G28   29.46F
MITCHELL       LGT RAIN  57  45  64 SE25G32   29.51S
YANKTON          N/A     54  46  74 SE10      29.57S
$$

ABBREVIATIONS USED IN REMARKS
   TC - TEMPERATURE IN CELSIUS
  WCI - WIND CHILL INDEX
   HX - HEAT INDEX
  VSB - VISIBILITY





USA.gov is the U.S. government's official web portal to all federal, state and local government web resources and services.